Time,TemperatureF,DewpointF,PressureIn,WindDirection,WindDirectionDegrees,WindSpeedMPH,WindSpeedGustMPH,Humidity,HourlyPrecipIn,Conditions,Clouds,dailyrainin,SoftwareType,DateUTC
2013-04-01 00:02:00,48.0,36.0,-100.00,WSW,250,1.0,1.0,62,-99.99,,,-99.99,,2013-04-01 07:02:00,
2013-04-01 00:12:00,48.0,36.0,-100.00,WSW,250,1.0,1.0,62,-99.99,,,-99.99,,2013-04-01 07:12:00,
2013-04-01 01:02:00,46.0,37.0,-100.00,SSW,210,0.0,1.0,70,-99.99,,,-99.99,,2013-04-01 08:02:00,
2013-04-01 01:12:00,46.0,37.0,-100.00,SSW,210,0.0,1.0,70,-99.99,,,-99.99,,2013-04-01 08:12:00,
2013-04-01 02:02:00,45.0,38.0,-100.00,WSW,250,1.0,1.0,76,-99.99,,,-99.99,,2013-04-01 09:02:00,
2013-04-01 02:12:00,45.0,38.0,-100.00,WSW,250,1.0,1.0,76,-99.99,,,-99.99,,2013-04-01 09:12:00,
2013-04-01 03:03:00,43.0,38.0,-100.00,West,270,0.0,1.0,82,-99.99,,,-99.99,,2013-04-01 10:03:00,
2013-04-01 03:12:00,43.0,38.0,-100.00,West,270,0.0,1.0,82,-99.99,,,-99.99,,2013-04-01 10:12:00,
2013-04-01 04:03:00,42.0,38.0,-100.00,ENE,70,0.0,2.0,85,-99.99,,,-99.99,,2013-04-01 11:03:00,
2013-04-01 04:12:00,42.0,38.0,-100.00,ENE,70,0.0,2.0,85,-99.99,,,-99.99,,2013-04-01 11:12:00,
2013-04-01 05:02:00,41.0,37.0,-100.00,WSW,240,0.0,1.0,85,-99.99,,,-99.99,,2013-04-01 12:02:00,
2013-04-01 05:12:00,41.0,37.0,-100.00,WSW,240,0.0,1.0,85,-99.99,,,-99.99,,2013-04-01 12:12:00,
2013-04-01 06:02:00,40.0,37.0,-100.00,North,-999,0.0,0.0,88,-99.99,,,-99.99,,2013-04-01 13:02:00,
2013-04-01 06:12:00,40.0,37.0,-100.00,North,-999,0.0,0.0,88,-99.99,,,-99.99,,2013-04-01 13:12:00,
2013-04-01 07:03:00,39.0,37.0,-100.00,NE,45,0.0,1.0,92,-99.99,,,-99.99,,2013-04-01 14:03:00,
2013-04-01 07:12:00,39.0,37.0,-100.00,NE,45,0.0,1.0,92,-99.99,,,-99.99,,2013-04-01 14:12:00,
2013-04-01 08:02:00,41.0,39.0,-100.00,NE,55,1.0,2.0,92,-99.99,,,-99.99,,2013-04-01 15:02:00,
2013-04-01 08:12:00,41.0,39.0,-100.00,NE,55,1.0,2.0,92,-99.99,,,-99.99,,2013-04-01 15:12:00,
2013-04-01 12:03:00,62.0,39.0,-100.00,SE,125,3.0,6.0,42,-99.99,,,-99.99,,2013-04-01 19:03:00,
2013-04-01 12:12:00,62.0,39.0,-100.00,SE,125,3.0,6.0,42,-99.99,,,-99.99,,2013-04-01 19:12:00,
2013-04-01 13:02:00,66.0,40.0,-100.00,ENE,65,3.0,6.0,38,-99.99,,,-99.99,,2013-04-01 20:02:00,
2013-04-01 13:12:00,66.0,40.0,-100.00,ENE,65,3.0,6.0,38,-99.99,,,-99.99,,2013-04-01 20:12:00,
2013-04-01 14:02:00,71.0,42.0,-100.00,NNE,20,1.0,3.0,35,-99.99,,,-99.99,,2013-04-01 21:02:00,
2013-04-01 14:12:00,71.0,42.0,-100.00,NNE,20,1.0,3.0,35,-99.99,,,-99.99,,2013-04-01 21:12:00,
2013-04-01 15:02:00,73.0,42.0,-100.00,ENE,75,2.0,5.0,32,-99.99,,,-99.99,,2013-04-01 22:02:00,
2013-04-01 15:12:00,73.0,42.0,-100.00,ENE,75,2.0,5.0,32,-99.99,,,-99.99,,2013-04-01 22:12:00,
2013-04-01 16:02:00,74.0,39.0,-100.00,NE,35,2.0,5.0,28,-99.99,,,-99.99,,2013-04-01 23:02:00,
2013-04-01 16:12:00,74.0,39.0,-100.00,NE,35,2.0,5.0,28,-99.99,,,-99.99,,2013-04-01 23:12:00,
2013-04-01 17:02:00,74.0,37.0,-100.00,South,185,2.0,6.0,26,-99.99,,,-99.99,,2013-04-02 00:02:00,
2013-04-01 17:12:00,74.0,37.0,-100.00,South,185,2.0,6.0,26,-99.99,,,-99.99,,2013-04-02 00:12:00,
2013-04-01 18:02:00,71.0,37.0,-100.00,NNW,340,2.0,6.0,28,-99.99,,,-99.99,,2013-04-02 01:02:00,
2013-04-01 18:12:00,71.0,37.0,-100.00,NNW,340,2.0,6.0,28,-99.99,,,-99.99,,2013-04-02 01:12:00,
2013-04-01 19:02:00,71.0,37.0,-100.00,North,5,1.0,5.0,28,-99.99,,,-99.99,,2013-04-02 02:02:00,
2013-04-01 19:12:00,71.0,37.0,-100.00,North,5,1.0,5.0,28,-99.99,,,-99.99,,2013-04-02 02:12:00,
2013-04-01 20:02:00,67.0,36.0,-100.00,WSW,245,1.0,3.0,31,-99.99,,,-99.99,,2013-04-02 03:02:00,
2013-04-01 20:12:00,67.0,36.0,-100.00,WSW,245,1.0,3.0,31,-99.99,,,-99.99,,2013-04-02 03:12:00,
2013-04-01 21:02:00,64.0,38.0,-100.00,WNW,285,2.0,6.0,38,-99.99,,,-99.99,,2013-04-02 04:02:00,
2013-04-01 21:13:00,64.0,38.0,-100.00,WNW,285,2.0,6.0,38,-99.99,,,-99.99,,2013-04-02 04:13:00,
2013-04-01 22:02:00,59.0,38.0,-100.00,NNE,15,1.0,2.0,45,-99.99,,,-99.99,,2013-04-02 05:02:00,
2013-04-01 22:12:00,59.0,38.0,-100.00,NNE,15,1.0,2.0,45,-99.99,,,-99.99,,2013-04-02 05:12:00,
2013-04-01 23:02:00,57.0,39.0,-100.00,West,270,0.0,2.0,50,-99.99,,,-99.99,,2013-04-02 06:02:00,
2013-04-01 23:12:00,57.0,39.0,-100.00,West,270,0.0,2.0,50,-99.99,,,-99.99,,2013-04-02 06:12:00,